SENTINEL-5P (42969 NORAD) Tracking and Keplerian Element Data

This shows tracking and keplerian element data for the satellite.

Feedback or suggestion? Click here.




ElementValue
Catalog42969
NameSENTINEL-5P
Epoch Orbit34471
Epoch Day160.16373597
Epoch Year2024
RAAN99.5043
Inclination98.7215
Eccentricity0.0001302
Argument of Perigee80.3865
Mean Anonmoly279.7459
Mean Motion14.19530767
Decay Rate2.1E-06
L11 42969U 17064A 24160.16373597 .00000210 00000+0 12023-3 0 9995
L22 42969 98.7215 99.5043 0001302 80.3865 279.7459 14.19530767344715



Live tracking and technical data element details for SENTINEL-5P (NORAD 42969). SENTINEL-5P can be tracked NOW for your location showing map with azimuth and elevation plus other details from your city location.







IsCatalogInMostPopularTable: catalog: 42969, numindb: 1181
Update: records affected: 1



GetName: 42969 SENTINEL-5P

Hit Count: updated at: Tue, 17 Sep 2024 12:27:44 GMT